[Date Prev][Date Next][Thread Prev][Thread Next] - [Date Index][Thread Index][Author Index]

2 Line ISS Keps 5-18



ISS
1 25544U 98067A   03138.32547454  .00009860  00000-0  12888-3 0   230
2 25544  51.6298 170.2961 0006040 125.0964  67.4782 15.59332815256342


----
Via the sarex mailing list at AMSAT.ORG courtesy of AMSAT-NA.
To unsubscribe, send "unsubscribe sarex" to Majordomo@amsat.org



AMSAT Top AMSAT Home